Multibeam Report for TN323


Ship Name: Thomas G. Thompson
Chief Scientist: Send, Uwe
Scripps Institution of Oceanography
Source Organization: UNOLS R2R
Start Date: 2015-05-29
End Date: 2015-06-14


View ISO Metadata

Visit the full NCEI Bathymetry Viewer


Multibeam Bathymetry

Cruise Details

Project: Ocean Observatories Initiative (OOI): Station Papa
Instrument: Kongsberg EM302

Data Quality

Number of Files: 136
Number of Records: 128476
BATHYMETRY DATA Quantity Percentage
Number of Beams 37001088 100%
Number of Good Beams 36574396 98.85%
Number of Zero Beams 0 0%
Number of Flagged Beams 426692 1.15%

Navigation Totals

Total Time: 63.2228 hours
Total Track Length: 720.0721 km
Average Speed: 11.389 km/hr (6.1496 knots)

Cruise Bounds

Northern Extent: 54.40047
Southern Extent: 48.213398
Western Extent: -166.24734
Eastern Extent: -123.05244

Limits

Minimum Sonar Depth 3.7092 Maximum Sonar Depth 7.5188
Minimum Altitude 37.5438 Maximum Altitude 5250.2314
Minimum Depth 12.7517 Maximum Depth 5678.6475

File Information

Full Resolution Bathymetry as collected (raw): 134

Files File Size Description
0000_20150529_221812_TGT.all.mb58.gz 69.52MB Kongsberg multibeam vendor format
0001_20150529_224807_TGT.all.mb58.gz 71.80MB Kongsberg multibeam vendor format
0002_20150529_231807_TGT.all.mb58.gz 58.56MB Kongsberg multibeam vendor format
0003_20150529_234807_TGT.all.mb58.gz 46.30MB Kongsberg multibeam vendor format
0004_20150530_001807_TGT.all.mb58.gz 47.25MB Kongsberg multibeam vendor format
0005_20150530_004807_TGT.all.mb58.gz 48.65MB Kongsberg multibeam vendor format
0006_20150530_011807_TGT.all.mb58.gz 48.39MB Kongsberg multibeam vendor format
0007_20150530_014807_TGT.all.mb58.gz 48.26MB Kongsberg multibeam vendor format
0008_20150530_021807_TGT.all.mb58.gz 45.28MB Kongsberg multibeam vendor format
0009_20150530_024807_TGT.all.mb58.gz 40.98MB Kongsberg multibeam vendor format
0010_20150530_031808_TGT.all.mb58.gz 38.89MB Kongsberg multibeam vendor format
0011_20150530_034807_TGT.all.mb58.gz 46.61MB Kongsberg multibeam vendor format
0012_20150530_041808_TGT.all.mb58.gz 96.44MB Kongsberg multibeam vendor format
0013_20150530_044807_TGT.all.mb58.gz 70.63MB Kongsberg multibeam vendor format
0014_20150530_051807_TGT.all.mb58.gz 61.22MB Kongsberg multibeam vendor format
0015_20150530_054808_TGT.all.mb58.gz 65.71MB Kongsberg multibeam vendor format
0016_20150530_061807_TGT.all.mb58.gz 75.44MB Kongsberg multibeam vendor format
0017_20150530_064807_TGT.all.mb58.gz 89.95MB Kongsberg multibeam vendor format
0018_20150530_071807_TGT.all.mb58.gz 85.64MB Kongsberg multibeam vendor format
0019_20150530_074807_TGT.all.mb58.gz 62.15MB Kongsberg multibeam vendor format
0020_20150530_081808_TGT.all.mb58.gz 27.08MB Kongsberg multibeam vendor format
0021_20150530_084807_TGT.all.mb58.gz 3.96MB Kongsberg multibeam vendor format
0022_20150530_091808_TGT.all.mb58.gz 14.27MB Kongsberg multibeam vendor format
0023_20150530_094808_TGT.all.mb58.gz 3.76MB Kongsberg multibeam vendor format
0024_20150530_101808_TGT.all.mb58.gz 8.58MB Kongsberg multibeam vendor format
0025_20150530_104811_TGT.all.mb58.gz 8.55MB Kongsberg multibeam vendor format
0026_20150530_111808_TGT.all.mb58.gz 7.71MB Kongsberg multibeam vendor format
0027_20150530_114812_TGT.all.mb58.gz 7.78MB Kongsberg multibeam vendor format
0028_20150530_121808_TGT.all.mb58.gz 7.77MB Kongsberg multibeam vendor format
0029_20150530_124808_TGT.all.mb58.gz 8.08MB Kongsberg multibeam vendor format
0030_20150530_131813_TGT.all.mb58.gz 7.78MB Kongsberg multibeam vendor format
0031_20150530_134815_TGT.all.mb58.gz 7.71MB Kongsberg multibeam vendor format
0032_20150530_141815_TGT.all.mb58.gz 7.69MB Kongsberg multibeam vendor format
0033_20150530_144813_TGT.all.mb58.gz 7.48MB Kongsberg multibeam vendor format
0034_20150530_151810_TGT.all.mb58.gz 7.37MB Kongsberg multibeam vendor format
0035_20150530_154808_TGT.all.mb58.gz 7.59MB Kongsberg multibeam vendor format
0036_20150530_161808_TGT.all.mb58.gz 7.49MB Kongsberg multibeam vendor format
0037_20150530_164813_TGT.all.mb58.gz 7.36MB Kongsberg multibeam vendor format
0038_20150530_171811_TGT.all.mb58.gz 7.29MB Kongsberg multibeam vendor format
0039_20150530_174811_TGT.all.mb58.gz 7.49MB Kongsberg multibeam vendor format
0040_20150530_181816_TGT.all.mb58.gz 7.38MB Kongsberg multibeam vendor format
0041_20150530_184809_TGT.all.mb58.gz 7.40MB Kongsberg multibeam vendor format
0042_20150530_191809_TGT.all.mb58.gz 4.24MB Kongsberg multibeam vendor format
0043_20150602_115852_TGT.all.mb58.gz 35.2KB Kongsberg multibeam vendor format
0044_20150602_115911_TGT.all.mb58.gz 6.24MB Kongsberg multibeam vendor format
0045_20150602_122901_TGT.all.mb58.gz 6.27MB Kongsberg multibeam vendor format
0046_20150602_125907_TGT.all.mb58.gz 6.25MB Kongsberg multibeam vendor format
0047_20150602_132905_TGT.all.mb58.gz 6.28MB Kongsberg multibeam vendor format
0048_20150602_135910_TGT.all.mb58.gz 4.66MB Kongsberg multibeam vendor format
0049_20150603_024235_TGT.all.mb58.gz 6.25MB Kongsberg multibeam vendor format
0050_20150603_031229_TGT.all.mb58.gz 6.25MB Kongsberg multibeam vendor format
0051_20150603_034234_TGT.all.mb58.gz 3.56MB Kongsberg multibeam vendor format
0052_20150606_033731_TGT.all.mb58.gz 6.22MB Kongsberg multibeam vendor format
0053_20150606_040721_TGT.all.mb58.gz 6.25MB Kongsberg multibeam vendor format
0054_20150606_043720_TGT.all.mb58.gz 6.28MB Kongsberg multibeam vendor format
0055_20150606_050725_TGT.all.mb58.gz 6.26MB Kongsberg multibeam vendor format
0056_20150606_053724_TGT.all.mb58.gz 6.27MB Kongsberg multibeam vendor format
0057_20150606_060724_TGT.all.mb58.gz 6.24MB Kongsberg multibeam vendor format
0058_20150606_063719_TGT.all.mb58.gz 6.28MB Kongsberg multibeam vendor format
0059_20150606_070724_TGT.all.mb58.gz 6.25MB Kongsberg multibeam vendor format
0060_20150606_073720_TGT.all.mb58.gz 6.28MB Kongsberg multibeam vendor format
0061_20150606_080724_TGT.all.mb58.gz 6.25MB Kongsberg multibeam vendor format
0062_20150606_083721_TGT.all.mb58.gz 6.25MB Kongsberg multibeam vendor format
0063_20150606_090718_TGT.all.mb58.gz 6.28MB Kongsberg multibeam vendor format
0064_20150606_093725_TGT.all.mb58.gz 6.25MB Kongsberg multibeam vendor format
0065_20150606_100721_TGT.all.mb58.gz 6.25MB Kongsberg multibeam vendor format
0066_20150606_103718_TGT.all.mb58.gz 6.28MB Kongsberg multibeam vendor format
0067_20150606_110724_TGT.all.mb58.gz 6.25MB Kongsberg multibeam vendor format
0068_20150606_113719_TGT.all.mb58.gz 6.28MB Kongsberg multibeam vendor format
0069_20150606_120723_TGT.all.mb58.gz 6.24MB Kongsberg multibeam vendor format
0070_20150606_123718_TGT.all.mb58.gz 6.28MB Kongsberg multibeam vendor format
0071_20150606_130724_TGT.all.mb58.gz 6.26MB Kongsberg multibeam vendor format
0072_20150606_133721_TGT.all.mb58.gz 6.25MB Kongsberg multibeam vendor format
0073_20150606_140717_TGT.all.mb58.gz 6.28MB Kongsberg multibeam vendor format
0074_20150606_143723_TGT.all.mb58.gz 6.24MB Kongsberg multibeam vendor format
0075_20150606_150717_TGT.all.mb58.gz 6.25MB Kongsberg multibeam vendor format
0076_20150606_153718_TGT.all.mb58.gz 6.25MB Kongsberg multibeam vendor format
0077_20150606_160724_TGT.all.mb58.gz 6.21MB Kongsberg multibeam vendor format
0078_20150606_163722_TGT.all.mb58.gz 6.19MB Kongsberg multibeam vendor format
0079_20150606_170722_TGT.all.mb58.gz 6.19MB Kongsberg multibeam vendor format
0080_20150606_173723_TGT.all.mb58.gz 6.21MB Kongsberg multibeam vendor format
0081_20150606_180726_TGT.all.mb58.gz 6.32MB Kongsberg multibeam vendor format
0082_20150606_183720_TGT.all.mb58.gz 6.41MB Kongsberg multibeam vendor format
0083_20150606_190721_TGT.all.mb58.gz 6.40MB Kongsberg multibeam vendor format
0084_20150606_193722_TGT.all.mb58.gz 6.45MB Kongsberg multibeam vendor format
0085_20150606_200724_TGT.all.mb58.gz 6.27MB Kongsberg multibeam vendor format
0086_20150606_203720_TGT.all.mb58.gz 6.25MB Kongsberg multibeam vendor format
0087_20150606_210717_TGT.all.mb58.gz 6.29MB Kongsberg multibeam vendor format
0088_20150606_213725_TGT.all.mb58.gz 6.24MB Kongsberg multibeam vendor format
0089_20150606_220721_TGT.all.mb58.gz 6.24MB Kongsberg multibeam vendor format
0090_20150606_223718_TGT.all.mb58.gz 4.04MB Kongsberg multibeam vendor format
0091_20150607_022025_TGT.all.mb58.gz 6.22MB Kongsberg multibeam vendor format
0092_20150607_025017_TGT.all.mb58.gz 6.25MB Kongsberg multibeam vendor format
0093_20150607_032016_TGT.all.mb58.gz 6.25MB Kongsberg multibeam vendor format
0094_20150607_035016_TGT.all.mb58.gz 2.30MB Kongsberg multibeam vendor format
0095_20150607_041152_TGT.all.mb58.gz 6.23MB Kongsberg multibeam vendor format
0096_20150607_044143_TGT.all.mb58.gz 6.26MB Kongsberg multibeam vendor format
0097_20150607_051141_TGT.all.mb58.gz 6.24MB Kongsberg multibeam vendor format
0098_20150607_054142_TGT.all.mb58.gz 6.22MB Kongsberg multibeam vendor format
0099_20150607_061141_TGT.all.mb58.gz 6.23MB Kongsberg multibeam vendor format
0100_20150607_064145_TGT.all.mb58.gz 6.19MB Kongsberg multibeam vendor format
0101_20150607_071140_TGT.all.mb58.gz 1.83MB Kongsberg multibeam vendor format
0102_20150607_203020_TGT.all.mb58.gz 6.23MB Kongsberg multibeam vendor format
0103_20150607_210012_TGT.all.mb58.gz 6.23MB Kongsberg multibeam vendor format
0104_20150607_213011_TGT.all.mb58.gz 6.27MB Kongsberg multibeam vendor format
0105_20150607_220014_TGT.all.mb58.gz 6.25MB Kongsberg multibeam vendor format
0106_20150607_223008_TGT.all.mb58.gz 6.24MB Kongsberg multibeam vendor format
0107_20150607_230014_TGT.all.mb58.gz 6.20MB Kongsberg multibeam vendor format
0108_20150607_233009_TGT.all.mb58.gz 6.24MB Kongsberg multibeam vendor format
0109_20150608_000007_TGT.all.mb58.gz 6.27MB Kongsberg multibeam vendor format
0110_20150608_003013_TGT.all.mb58.gz 6.24MB Kongsberg multibeam vendor format
0111_20150608_010008_TGT.all.mb58.gz 2.43MB Kongsberg multibeam vendor format
0113_20150608_231249_TGT.all.mb58.gz 6.10MB Kongsberg multibeam vendor format
0114_20150608_234234_TGT.all.mb58.gz 6.13MB Kongsberg multibeam vendor format
0115_20150609_001233_TGT.all.mb58.gz 6.16MB Kongsberg multibeam vendor format
0116_20150609_004241_TGT.all.mb58.gz 6.12MB Kongsberg multibeam vendor format
0117_20150609_011240_TGT.all.mb58.gz 6.12MB Kongsberg multibeam vendor format
0118_20150609_014236_TGT.all.mb58.gz 6.12MB Kongsberg multibeam vendor format
0119_20150609_021233_TGT.all.mb58.gz 6.13MB Kongsberg multibeam vendor format
0120_20150609_024233_TGT.all.mb58.gz 6.13MB Kongsberg multibeam vendor format
0121_20150609_031234_TGT.all.mb58.gz 6.13MB Kongsberg multibeam vendor format
0122_20150609_034235_TGT.all.mb58.gz 6.13MB Kongsberg multibeam vendor format
0123_20150609_041235_TGT.all.mb58.gz 5.49MB Kongsberg multibeam vendor format
0124_20150609_174127_TGT.all.mb58.gz 6.25MB Kongsberg multibeam vendor format
0125_20150609_181128_TGT.all.mb58.gz 4.34MB Kongsberg multibeam vendor format
0126_20150609_184134_TGT.all.mb58.gz 0.76MB Kongsberg multibeam vendor format
0127_20150612_200052_TGT.all.mb58.gz 100.75MB Kongsberg multibeam vendor format
0128_20150612_203052_TGT.all.mb58.gz 60.19MB Kongsberg multibeam vendor format
0129_20150612_210053_TGT.all.mb58.gz 36.45MB Kongsberg multibeam vendor format
0130_20150612_213053_TGT.all.mb58.gz 34.44MB Kongsberg multibeam vendor format
0131_20150612_220053_TGT.all.mb58.gz 31.68MB Kongsberg multibeam vendor format
0132_20150612_223053_TGT.all.mb58.gz 34.71MB Kongsberg multibeam vendor format
0133_20150612_230052_TGT.all.mb58.gz 52.14MB Kongsberg multibeam vendor format
0134_20150612_233052_TGT.all.mb58.gz 60.34MB Kongsberg multibeam vendor format

Metadata Files: 2

Files File Size Description
TN323_Multibeam.xml NGDC created ISO metadata
em302_bag_info.tar.gz 6.6KB Additional cruise information